Regional Weather Roundup
Issued by NWS

Home | Current Version | Previous Version | Graphics & Text | Print | Product List | Glossary On
Versions: 1 2 3 4 5 6 7 8 9 10 11 12 13 14 15 16 17 18 19 20 21 22 23 24 25 26 27 28
000
ASUS45 KTFX 290710
RWRMT
MONTANA REGIONAL WEATHER ROUNDUP
NATIONAL WEATHER SERVICE GREAT FALLS MT
100 AM MDT MON MAY 29 2017

NOTE: "FAIR" INDICATES FEW OR NO CLOUDS BELOW 12000 FEET WITH NO
SIGNIFICANT WEATHER AND/OR OBSTRUCTIONS TO VISIBILITY.

MTZ001>007-043-290800-
WEST OF THE DIVIDE

CITY           SKY/WX    TMP DP  RH WIND       PRES   REMARKS
KALISPELL      CLEAR     52  46  80 CALM      30.15R
MISSOULA       CLEAR     65  42  43 E9        30.17S
BUTTE          CLEAR     46  40  79 S5        30.30S
MULLAN PASS    CLEAR     60  34  37 CALM      30.27S
ANACONDA         N/A     48  37  66 S3        30.28R
DEER LODGE       N/A     48  39  71 W7        30.29R
EUREKA           N/A     55  45  67 CALM      30.13S
HAMILTON         N/A     54  41  62 CALM      30.18R
PLAINS           N/A     54  45  71 CALM      30.13R
RONAN            N/A     54  45  71 CALM      30.18S
$$

MTZ008-052>055-290800-
SOUTHWEST MONTANA

CITY           SKY/WX    TMP DP  RH WIND       PRES   REMARKS
BOZEMAN        CLEAR     50  43  77 CALM      30.26S
DILLON         CLEAR     50  38  63 CALM      30.26S
ENNIS          PTCLDY    43  37  81 SE5       30.33R
THREE FORKS      N/A     48  43  83 CALM      30.22S
TWIN BRIDGES     N/A     56  37  48 N2        30.22S
$$

MTZ009-010-012-014-046-048-049-054-290800-
EAST SLOPES AND CENTRAL MONTANA

CITY           SKY/WX    TMP DP  RH WIND       PRES   REMARKS
CUT BANK       MOCLDY    52  40  63 E3        30.25R
GREAT FALLS    CLEAR     49  45  86 NW7       30.25R
MALMSTROM AFB  CLEAR     46  45  97 S5        30.24S
HELENA         CLEAR     51  44  77 CALM      30.24R
CHOTEAU          N/A     46  45  93 NE3       30.27R
CONRAD           N/A     46  46 100 CALM      30.24S
$$

MTZ011-013-016-021-045-047-050-051-290800-
NORTH CENTRAL MONTANA

CITY           SKY/WX    TMP DP  RH WIND       PRES   REMARKS
HAVRE          PTCLDY    44  32  62 SE5       30.22R
LEWISTOWN      PTCLDY    45  39  79 CALM      30.25R
N BAR RANCH    CLOUDY    50  34  53 W6        30.28S
CHINOOK          N/A     46  30  53 CALM      30.22R
$$

MTZ017>020-022>027-061-062-290800-
NORTHEAST MONTANA

CITY           SKY/WX    TMP DP  RH WIND       PRES   REMARKS
GLASGOW        PTCLDY    44  29  55 N8        30.17R
JORDAN           N/A     48  24  39 NW10      30.17R
SIDNEY         CLEAR     46  36  68 NW12      30.10S
WOLF POINT     CLEAR     46  31  55 NW8       30.14R
MALTA          CLEAR     48  30  49 N12       30.19S
PLENTYWOOD       N/A     45  36  70 NW7       30.10R
SCOBEY           N/A     40  26  57 CALM      30.12R
$$

MTZ028>42-056>058-290800-
SOUTHCENTRAL AND SOUTHEAST MONTANA

CITY           SKY/WX    TMP DP  RH WIND       PRES   REMARKS
BAKER          CLEAR     42  33  70 W7        30.12R
BILLINGS       PTCLDY    52  44  74 W8        30.22R
LIVINGSTON     PTCLDY    43  41  93 CALM      30.27S
MILES CITY     CLEAR     47  26  44 NW7       30.15R
BIG TIMBER     PTCLDY    46  43  87 W7        30.29S
EKALAKA          N/A     48  28  46 CALM      30.10R
FORSYTH          N/A     55  28  35 N5        30.17R
LAUREL           N/A     52  40  63 CALM      30.19F
ROUNDUP          N/A     51  33  50 NW5       30.12S
$$

REGIONAL REPORTS...DAKOTAS

CITY           SKY/WX    TMP DP  RH WIND       PRES   REMARKS
WILLISTON      CLEAR     50  40  68 NW10      30.08R
MINOT          PTCLDY    51  44  77 NW17      29.96R
DICKINSON      CLEAR     40  35  83 W9        30.04S
BEACH            N/A     43  37  81 W6        30.13R
CROSBY           N/A     46  45  93 NW13      30.06S
TIOGA            N/A     46  46 100 NW13      30.06S
WATFORD CITY     N/A     48  41  76 NW8       30.06S
BISMARCK       CLEAR     51  42  71 NW7       29.97S
GRAND FORKS    CLOUDY    52  49  89 NW13      29.79S
FARGO          CLOUDY    53  49  86 NW9       29.80S
BUFFALO SD       N/A     46  34  62 W5        30.05R
RAPID CITY     PTCLDY    50  40  68 NW10      30.10R
$$

REGIONAL REPORTS...WYOMING/IDAHO/WASHINGTON

CITY           SKY/WX    TMP DP  RH WIND       PRES   REMARKS
GILLETTE       CLEAR     48  42  80 W14       30.18S
SHERIDAN       CLEAR     48  40  73 NW7       30.20S
BUFFALO WY     CLEAR     52  36  54 W13       30.23S
CODY           CLOUDY    51  42  71 SW3       30.29F
YELLOWSTONE LA   N/A     32  31  96 CALM      30.39F
IDAHO FALLS    CLEAR     49  43  80 N6        30.22R
SALMON         CLEAR     52  39  62 SE3       30.17R
BOISE          CLEAR     63  43  48 SE7       30.08S
SPOKANE        CLEAR     65  48  54 SW3       30.07S
$$

REGIONAL REPORTS...ALBERTA

CITY           SKY/WX    TMP DP  RH WIND       PRES   REMARKS
EDMONTON       CLEAR     45  34  65 E3        30.23R
CALGARY        PTCLDY    54  37  54 S8        30.25F
LETHBRIDGE     CLOUDY    50  43  76 E6        30.23S
MEDICINE HAT   CLEAR     46  32  57 S5        30.22S
WATERTON GATE    N/A     46  43  87 SW3         N/A
CARDSTON         N/A     50  43  76 SE2         N/A
MILK RIVER       N/A     46  39  76 E2          N/A
$$

REGIONAL REPORTS...SASKATCHEWAN

CITY           SKY/WX    TMP DP  RH WIND       PRES   REMARKS
SWIFT CURRENT  CLEAR     46  34  61 NW3       30.19S
REGINA         MOCLDY    46  39  76 NW6       30.10S
SASKATOON      PTCLDY    39  36  87 NW9       30.18S
VAL MARIE        N/A     37  28  70 N7          N/A
ROCKGLEN         N/A     43  36  75 NW7         N/A
$$




USA.gov is the U.S. government's official web portal to all federal, state and local government web resources and services.